Regional Weather Roundup
Issued by NWS Albany, NY

Home | Current Version | Previous Version | Text Only | Print | Product List | Glossary On
Versions: 1 2 3 4 5 6 7 8 9 10 11 12 13 14 15 16 17 18 19 20 21 22 23 24 25 26 27 28 29 30 31 32 33 34 35 36 37 38 39 40 41 42 43 44 45 46 47 48 49 50
332
ASUS41 KALY 271610
RWRALY

NEW YORK STATE HOURLY WEATHER ROUNDUP
NATIONAL WEATHER SERVICE ALBANY NY
1200 PM EDT FRI MAY 27 2016

NOTE: "FAIR" INDICATES FEW OR NO CLOUDS BELOW 12,000 FEET WITH NO
SIGNIFICANT WEATHER AND/OR NO OBSTRUCTIONS TO VISIBILITY.

NYZ032-033-038>043-046>054-057>066-NYZ062>081-082-084-271700-
EAST


CITY           SKY/WX    TMP DP  RH WIND       PRES   REMARKS
ALBANY         CLOUDY    80  62  54 S8        30.03S
GLENS FALLS    CLOUDY    85  63  47 SE8       30.00F
POUGHKEEPSIE   CLOUDY    81  64  56 VRB5      30.04S
NEWBURGH       PTSUNNY   79  68  69 VRB5      30.07S
MONTGOMERY     CLOUDY    82  68  62 SW7       30.04F
WHITE PLAINS   MOSUNNY   80  64  58 S5        30.07S
ISLIP          PTSUNNY   74  63  68 S10       30.09R
NEW YORK CITY  MOSUNNY   84  68  58 SE10      30.06R
CENTRAL PARK   SUNNY     84  63  49 VRB3      30.09R
$$

NYZ005>009-017-018-044>046-055-056-271700-
CENTRAL


CITY           SKY/WX    TMP DP  RH WIND       PRES   REMARKS
FULTON         MOSUNNY   84  69  60 VRB5      30.00S
SYRACUSE       PTSUNNY   83  67  58 N5        29.99S
ROME           MOSUNNY   82  65  56 NW6       30.02S
ELMIRA         MOSUNNY   83  64  52 SW8       30.02F
BINGHAMTON     PTSUNNY   80  63  55 SW13      30.07S
MONTICELLO     MOSUNNY   79  66  65 SW3       30.10F
$$

NYZ026>034-041>043-087-271700-
NORTH


CITY           SKY/WX    TMP DP  RH WIND       PRES   REMARKS
WATERTOWN      MOSUNNY   79  66  64 W13       29.99S
FORT DRUM      NOT AVBL
MASSENA        SUNNY     85  65  51 S16G23    29.94F
SARANAC LAKE   MOSUNNY   81  58  45 SW13G20   30.01F
PLATTSBURGH    SUNNY     82  61  48 SE17      29.95F
$$

NYZ001>004-010>016-019>021-085-271700-
WEST


CITY           SKY/WX    TMP DP  RH WIND       PRES   REMARKS
NIAGARA FALLS  MOSUNNY   79  65  62 SW13      30.00R
BUFFALO        MOSUNNY   76  64  66 SW12G23   30.02R
DUNKIRK        MOSUNNY   76  63  64 W14       30.03R
JAMESTOWN      SUNNY     75  61  60 S8        30.06F
WELLSVILLE     MOSUNNY   79  62  56 VRB5      30.09S
ROCHESTER      PTSUNNY   81  68  64 W12       29.99S
PENN YAN       SUNNY     83  66  56 S8        30.02F
$$

             KEY
       WCI = WIND CHILL INDEX
       VSB = VISIBILITY
       HX  = HEAT INDEX
$$




USA.gov is the U.S. government's official web portal to all federal, state and local government web resources and services.